Regional Weather Roundup
Issued by NWS

Home | Current Version | Previous Version | Graphics & Text | Print | Product List | Glossary On
Versions: 1 2 3 4 5 6 7 8 9 10 11 12 13 14 15 16 17 18 19 20 21 22 23 24 25 26 27 28
000
ASUS45 KPSR 300510
RWRAZ

ARIZONA HOURLY REGIONAL WEATHER ROUNDUP
NATIONAL WEATHER SERVICE PHOENIX AZ
1000 PM MST MON AUG 29 2016

NOTE: FAIR INDICATES FEW OR NO CLOUDS BELOW 12,000 FEET WITH NO
SIGNIFICANT WEATHER AND/OR OBSTRUCTIONS TO VISIBILITY.

AZZ001>003-036-300600-
NORTHWEST ARIZONA

CITY           SKY/WX    TMP DP  RH WIND       PRES   REMARKS
BULLHEAD CITY  PTCLDY    99  39  12 E6        29.79R
KINGMAN        CLEAR     84  42  22 SE5       30.05R
$$

AZZ004>008-015-016-018-300600-
NORTH CENTRAL ARIZONA

CITY           SKY/WX    TMP DP  RH WIND       PRES   REMARKS
GRAND CANYON   CLEAR     54  45  71 CALM      30.33R
PRESCOTT       CLEAR     69  50  50 CALM      30.19R
FLAGSTAFF      PTCLDY    53  45  74 CALM      30.35R
PAYSON         CLEAR     70  39  32 NE5       30.21S
PAGE           CLEAR     77  40  26 SW3       30.12S
$$

AZZ009>014-017-300600-
NORTHEAST ARIZONA

CITY           SKY/WX    TMP DP  RH WIND       PRES   REMARKS
WINSLOW        CLEAR     67  48  50 CALM      30.19R
SAINT JOHNS    PTCLDY    70  42  36 SE8       30.24R
WINDOW ROCK    CLEAR     67  40  37 CALM      30.34R
SHOW LOW       CLEAR     57  39  51 CALM      30.30R
$$

AZZ023-300600-
GREATER PHOENIX AREA

CITY           SKY/WX    TMP DP  RH WIND       PRES   REMARKS
PHOENIX        CLEAR     97  44  16 N7        29.81R
BUCKEYE        CLEAR     91  45  19 E6        29.83S
LUKE AFB       CLEAR     93  49  22 N1        29.82R
DEER VALLEY    CLEAR     95  41  15 E7        29.85R
SCOTTSDALE     CLEAR     95  41  15 NE6       29.87R
MESA-GATEWAY   CLEAR     86  43  22 VRB5      29.86R
$$

AZZ027-028-300600-
SOUTHWEST MARICOPA COUNTY AND PINAL COUNTY

CITY           SKY/WX    TMP DP  RH WIND       PRES   REMARKS
CASA GRANDE    CLEAR     88  36  15 N3        29.87S
GILA BEND      CLEAR     89  39  17 S3        29.79S
$$

AZZ503-504-507>509-300600-
SOUTHEAST ARIZONA

CITY           SKY/WX    TMP DP  RH WIND       PRES   REMARKS
TUCSON         CLEAR     87  40  19 NW6       29.96R
DAVIS-MONTHAN  PTCLDY    83  44  24 NE5       29.96R
NOGALES        CLOUDY    76  46  34 NE3       30.06R
SIERRA VISTA   CLEAR     76  49  38 S10       30.14R
DOUGLAS        MOCLDY    79  50  36 E8        30.10R
SAFFORD        CLEAR     82  43  25 E5        30.02R
$$

AZZ020-021-025-026-031-300600-
SOUTHWEST ARIZONA

CITY           SKY/WX    TMP DP  RH WIND       PRES   REMARKS
YUMA           PTCLDY    96  47  18 SW7       29.75R
$$

CAZ031-033-041-043-047-048-061-300600-
SOUTHERN CALIFORNIA

CITY           SKY/WX    TMP DP  RH WIND       PRES   REMARKS
DOWNTOWN L.A.  CLEAR     71  60  68 CALM      29.87R
L.A. AIRPORT   CLEAR     70  63  78 SE3       29.87R
SAN DIEGO      PTCLDY    70  66  87 NW3       29.90S
BURBANK        CLEAR     74  58  57 SE9       29.88R
ONTARIO        CLEAR     78  57  48 NW9       29.90R
RIVERSIDE      CLEAR     81  60  48 W3        29.90R
PALM SPRINGS   CLEAR     99  45  15 CALM      29.80R
EL CENTRO NAS  CLEAR     93  49  22 W7        29.76R
IMPERIAL       CLEAR     95  53  24 W6        29.73R
BLYTHE         CLEAR     97  44  16 W6        29.76S
NEEDLES        PTCLDY   100  41  13 NW8       29.80R
$$

NVZ020-UTZ003-300600-
SOUTHERN NEVADA-UTAH

CITY           SKY/WX    TMP DP  RH WIND       PRES   REMARKS
LAS VEGAS      CLEAR     92  33  12 SW6       29.91R
SALT LAKE CITY PTCLDY    75  37  25 SE6       30.13S
$$

NMZ009-TXZ055-300600-
NEW MEXICO-WEST TEXAS

CITY           SKY/WX    TMP DP  RH WIND       PRES   REMARKS
ALBUQUERQUE    PTCLDY    65  53  65 E24       30.31R
EL PASO        PTCLDY    74  59  59 E8        30.18R
$$


........................KEY........................
SKY/WX - SKY CONDITION/WEATHER
TMP    - TEMPERATURE IN FAHRENHEIT
DP     - DEW POINT IN FAHRENHEIT
RH     - RELATIVE HUMIDITY IN PERCENT
WIND   - DIRECTION AND SPEED IN MILES PER HOUR (MPH)
VRB    - VARIABLE WIND DIRECTION
PRES   - MEAN SEA LEVEL PRESSURE IN INCHES OF MERCURY
         F - FALLING PRESSURE   R - RISING PRESSURE
         S - STEADY PRESSURE
VSB    - VISIBILITY IN MILES
HX     - HEAT INDEX IN FAHRENHEIT
WCI    - WIND CHILL INDEX IN FAHRENHEIT
TC     - TEMPERATURE IN CELSIUS WHICH IS ALSO KNOWN AS
         TEMPERATURE IN CENTIGRADE
AFB    - AIR FORCE BASE
         LUKE AFB IS LUKE AIR FORCE BASE
         DAVIS-MONTHAN IS DAVIS-MONTHAN AIR FORCE BASE
NAS    - NAVAL AIR STATION
         EL CENTRO NAS IS EL CENTRO NAVAL AIR STATION
N/A    - NOT AVAILABLE





USA.gov is the U.S. government's official web portal to all federal, state and local government web resources and services.